Savanna, IL

10:50 PM CST on February 21, 2017 (GMT -0600)
Tri-Township

Weather History for KSFY - October, 2013

Change the Weather History Date:

Thursday, October 3, 2013

  Actual Average (KCWI) Record (KCWI)
Temperature  
Mean Temperature 72 °F -  
Max Temperature 80 °F 70 °F 93 °F (1997)
Min Temperature 64 °F 47 °F 28 °F (1987)
Cooling Degree Days 7    
Growing Degree Days 22 (Base 50)    
Moisture  
Dew Point 65 °F    
Average Humidity 85    
Maximum Humidity 95    
Minimum Humidity 65    
Precipitation  
Precipitation 0.14 in - - ()
Sea Level Pressure  
Sea Level Pressure 29.88 in    
Wind  
Wind Speed 6 mph (SSE)    
Max Wind Speed 18 mph    
Max Gust Speed 25 mph    
Visibility 8 miles    
Events Rain , Thunderstorm    
Averages and records for this station are not official NWS values.
T = Trace of Precipitation, MM = Missing Value Source: NWS Daily Summary

Daily Weather History Graph

Daily Weather History Graph

Search for Another Location

Airport or City:

Trip Planner

Search our weather history database for the weather conditions in past years. The results will help you decide how hot, cold, wet, or windy it might be!

Date:

Astronomy

Oct. 03, 2013 Rise Set
Actual Time 6:59 AM CDT 6:38 PM CDT
Civil Twilight 6:31 AM CDT 7:05 PM CDT
Nautical Twilight 5:59 AM CDT 7:38 PM CDT
Astronomical Twilight 5:26 AM CDT 8:10 PM CDT
Moon 5:32 AM CDT (10/3) 5:47 PM CDT (10/3)
Length of Visible Light 12h 34m
Length of Day
11h 38m
Waning Crescent, 2% of the Moon is Illuminated
Oct 3
Waning Crescent
Oct 4
New
Oct 11
First Quarter
Oct 18
Full
Oct 26
Last Quarter

Hourly Weather History & Observations

Time (CDT) Temp. Heat Index Dew Point Humidity Pressure Visibility Wind Dir Wind Speed Gust Speed Precip Events Conditions
12:15 AM 67.1 °F - 60.8 °F 80% 29.94 in 10.0 mi SE 6.9 mph - N/A   Clear
12:35 AM 67.1 °F - 61.3 °F 82% 29.94 in 10.0 mi SE 5.8 mph - N/A   Clear
12:55 AM 66.2 °F - 62.2 °F 87% 29.93 in 7.0 mi SE 4.6 mph - N/A   Clear
1:15 AM 66.6 °F - 63.1 °F 89% 29.93 in 7.0 mi SE 5.8 mph - N/A   Scattered Clouds
1:35 AM 66.6 °F - 63.5 °F 90% 29.93 in 7.0 mi SSE 6.9 mph - N/A   Scattered Clouds
1:55 AM 66.4 °F - 63.1 °F 89% 29.92 in 7.0 mi SE 4.6 mph - N/A   Clear
2:15 AM 65.5 °F - 63.0 °F 92% 29.92 in 5.0 mi ESE 3.5 mph - N/A   Clear
2:35 AM 64.6 °F - 62.2 °F 92% 29.91 in 5.0 mi ESE 3.5 mph - N/A   Clear
2:55 AM 64.4 °F - 62.1 °F 92% 29.91 in 5.0 mi ESE 3.5 mph - N/A   Scattered Clouds
3:15 AM 64.4 °F - 62.1 °F 92% 29.91 in 5.0 mi SE 3.5 mph - N/A   Scattered Clouds
3:35 AM 64.4 °F - 62.6 °F 94% 29.91 in 5.0 mi SE 4.6 mph - N/A   Scattered Clouds
3:55 AM 64.8 °F - 62.8 °F 93% 29.90 in 5.0 mi SSE 5.8 mph - N/A   Scattered Clouds
4:15 AM 64.4 °F - 62.2 °F 93% 29.90 in 5.0 mi SE 3.5 mph - N/A   Scattered Clouds
4:35 AM 65.1 °F - 63.1 °F 93% 29.91 in 5.0 mi Calm Calm - N/A   Mostly Cloudy
4:55 AM 65.3 °F - 63.0 °F 92% 29.91 in 5.0 mi Calm Calm - N/A   Overcast
5:15 AM 64.9 °F - 63.0 °F 93% 29.90 in 5.0 mi Calm Calm - N/A   Overcast
5:35 AM 66.7 °F - 64.6 °F 93% 29.91 in 5.0 mi SSE 3.5 mph - N/A   Overcast
5:55 AM 66.6 °F - 64.4 °F 93% 29.90 in 5.0 mi SE 4.6 mph - N/A   Mostly Cloudy
6:15 AM 66.2 °F - 64.0 °F 93% 29.91 in 4.0 mi SSE 5.8 mph - N/A   Mostly Cloudy
6:35 AM 64.4 °F - 62.4 °F 93% 29.91 in 2.5 mi Calm Calm - N/A   Mostly Cloudy
6:55 AM 64.9 °F - 63.5 °F 95% 29.89 in 2.0 mi SE 5.8 mph - N/A Thunderstorm Overcast
7:15 AM 65.3 °F - 63.7 °F 94% 29.89 in 2.0 mi Calm Calm - N/A Thunderstorm Overcast
7:35 AM 65.5 °F - 63.9 °F 94% 29.90 in 2.0 mi Calm Calm - N/A   Overcast
7:55 AM 67.1 °F - 65.3 °F 94% 29.90 in 2.5 mi Calm Calm - N/A Thunderstorm Overcast
8:15 AM 68.2 °F - 66.4 °F 94% 29.89 in 3.0 mi Calm Calm - N/A Thunderstorm Overcast
8:35 AM 68.4 °F - 66.2 °F 93% 29.90 in 3.0 mi SSE 6.9 mph - N/A Thunderstorm Overcast
8:55 AM 68.2 °F - 66.2 °F 93% 29.90 in 2.5 mi SSE 8.1 mph - 0.01 in Rain , Thunderstorm Light Thunderstorms and Rain
9:15 AM 68.4 °F - 66.4 °F 93% 29.91 in 2.5 mi SE 9.2 mph - N/A Thunderstorm Overcast
9:35 AM 68.5 °F - 66.6 °F 93% 29.92 in 3.0 mi SSE 6.9 mph - N/A   Overcast
9:55 AM 68.9 °F - 66.6 °F 92% 29.91 in 5.0 mi SSE 9.2 mph - N/A Thunderstorm Overcast
10:15 AM 69.3 °F - 66.9 °F 92% 29.90 in 10.0 mi South 10.4 mph - N/A Thunderstorm Overcast
10:35 AM 69.8 °F - 66.6 °F 89% 29.91 in 10.0 mi South 11.5 mph - N/A Rain , Thunderstorm Thunderstorms and Rain
10:55 AM 70.2 °F - 67.1 °F 90% 29.91 in 10.0 mi South 6.9 mph - N/A Rain Light Rain
11:15 AM 70.3 °F - 67.1 °F 89% 29.91 in 10.0 mi South 10.4 mph - N/A   Overcast
11:35 AM 71.1 °F - 67.1 °F 87% 29.90 in 10.0 mi South 11.5 mph - N/A   Overcast
11:55 AM 72.3 °F - 67.3 °F 84% 29.89 in 10.0 mi SSE 10.4 mph - N/A   Overcast
12:15 PM 72.3 °F - 67.5 °F 85% 29.88 in 10.0 mi SSE 12.7 mph - N/A   Overcast
12:35 PM 72.7 °F - 68.0 °F 85% 29.88 in 10.0 mi SSE 9.2 mph - N/A   Overcast
12:55 PM 72.7 °F - 68.0 °F 85% 29.88 in 10.0 mi SSE 11.5 mph - N/A   Overcast
1:15 PM 72.9 °F - 68.0 °F 85% 29.86 in 10.0 mi SSE 10.4 mph - N/A   Overcast
1:35 PM 73.4 °F - 68.5 °F 85% 29.86 in 10.0 mi SSE 10.4 mph - N/A   Overcast
1:55 PM 75.7 °F - 68.0 °F 77% 29.85 in 10.0 mi South 6.9 mph - N/A   Overcast
2:15 PM 77.2 °F - 68.0 °F 73% 29.83 in 10.0 mi SE 6.9 mph - N/A   Mostly Cloudy
2:35 PM 77.4 °F - 67.6 °F 72% 29.84 in 10.0 mi South 11.5 mph - N/A   Mostly Cloudy
2:55 PM 78.1 °F - 67.5 °F 70% 29.84 in 10.0 mi South 11.5 mph 18.4 mph N/A   Scattered Clouds
3:15 PM 77.5 °F - 67.1 °F 70% 29.83 in 10.0 mi South 9.2 mph - N/A   Mostly Cloudy
3:35 PM 78.4 °F - 67.8 °F 70% 29.83 in 10.0 mi SSE 8.1 mph - N/A   Mostly Cloudy
3:55 PM 79.5 °F - 67.5 °F 66% 29.83 in 10.0 mi SSE 10.4 mph - N/A   Mostly Cloudy
4:15 PM 80.4 °F 83.0 °F 67.5 °F 65% 29.82 in 10.0 mi SE 8.1 mph - N/A   Mostly Cloudy
4:35 PM 78.4 °F - 66.6 °F 67% 29.81 in 10.0 mi South 9.2 mph - N/A   Mostly Cloudy
4:55 PM 79.3 °F - 66.9 °F 66% 29.82 in 10.0 mi SSE 9.2 mph - N/A   Scattered Clouds
5:15 PM 78.3 °F - 65.5 °F 65% 29.82 in 10.0 mi SSW 8.1 mph - N/A   Clear
5:35 PM 77.4 °F - 65.8 °F 67% 29.82 in 10.0 mi SSW 5.8 mph - N/A   Mostly Cloudy
5:55 PM 76.1 °F - 66.2 °F 71% 29.82 in 10.0 mi South 4.6 mph - N/A   Overcast
6:15 PM 76.6 °F - 66.2 °F 70% 29.81 in 10.0 mi SSE 4.6 mph - N/A   Scattered Clouds
6:35 PM 75.4 °F - 66.4 °F 73% 29.82 in 10.0 mi SSE 3.5 mph - N/A   Clear
6:55 PM 74.8 °F - 66.2 °F 74% 29.83 in 10.0 mi Calm Calm - N/A   Clear
7:15 PM 72.1 °F - 66.2 °F 82% 29.83 in 10.0 mi Calm Calm - N/A   Clear
7:35 PM 71.4 °F - 65.7 °F 82% 29.84 in 10.0 mi SE 3.5 mph - N/A   Scattered Clouds
7:55 PM 70.9 °F - 66.2 °F 85% 29.85 in 10.0 mi SSE 3.5 mph - N/A   Scattered Clouds
8:15 PM 71.8 °F - 66.2 °F 83% 29.85 in 10.0 mi South 3.5 mph - N/A   Scattered Clouds
8:35 PM 72.0 °F - 66.2 °F 82% 29.85 in 10.0 mi South 3.5 mph - N/A   Clear
8:55 PM 71.6 °F - 66.4 °F 84% 29.84 in 10.0 mi South 5.8 mph - N/A   Clear
9:15 PM 71.8 °F - 66.6 °F 84% 29.86 in 10.0 mi SSW 6.9 mph - N/A Thunderstorm Mostly Cloudy
9:35 PM 71.8 °F - 67.3 °F 86% 29.87 in 10.0 mi South 13.8 mph - N/A Rain , Thunderstorm Rain
9:55 PM 70.2 °F - 65.7 °F 86% 29.88 in 10.0 mi South 18.4 mph 25.3 mph 0.01 in Rain , Thunderstorm Light Thunderstorms and Rain
10:15 PM 68.5 °F - 64.9 °F 88% 29.90 in 10.0 mi South 13.8 mph - 0.02 in Rain , Thunderstorm Thunderstorms and Rain
10:35 PM 68.0 °F - 63.9 °F 87% 29.90 in 10.0 mi South 13.8 mph - 0.05 in Rain , Thunderstorm Light Thunderstorms and Rain
11:35 PM 67.1 °F - 63.5 °F 88% 29.87 in 5.0 mi SSE 5.8 mph - 0.06 in Rain , Thunderstorm Heavy Thunderstorms and Rain
11:55 PM 67.1 °F - 64.0 °F 90% 29.88 in 10.0 mi SSW 5.8 mph - 0.07 in Thunderstorm Overcast